VPCYW OOMS-LRCL

Flight info

Callsign VPCYW
Flight time 5h 20m
Altitude 38000
Route MCT T508 SOLUD P574 GISMO/N0459F340 P574 NORGA/N0456F350 R401 GABKO/N0454F380 M317 ROTAL P574 SYZ P550 DASIS UL746 ODERO L621 REVDA DCT RIPGA DCT DOKUD
Aircraft A319/M-SDE3FGHIRWY/LB1

Departure

Time 2026-05-06 15:03
Airport Muscat International Airport (OOMS)

Arrival

Time 2026-05-06 20:24
Airport Avram Iancu Cluj International Airport (LRCL)
Time Latitude Longitude Altitude Speed Heading
2026-05-06 14:31 23.60495 58.28942 53 ft 0 kts 85°
2026-05-06 14:45 23.60495 58.28935 53 ft 2 kts 85°
2026-05-06 14:46 23.60494 58.28919 53 ft 2 kts 85°
2026-05-06 14:46 23.60492 58.28902 53 ft 2 kts 85°
2026-05-06 14:46 23.60491 58.28886 53 ft 2 kts 85°
2026-05-06 14:46 23.60489 58.28870 53 ft 1 kts 85°
2026-05-06 14:47 23.60489 58.28860 53 ft 1 kts 64°
2026-05-06 14:47 23.60477 58.28849 53 ft 2 kts 12°
2026-05-06 14:47 23.60471 58.28849 53 ft 0 kts 351°
2026-05-06 14:47 23.60486 58.28848 53 ft 5 kts 354°
2026-05-06 14:48 23.60518 58.28845 53 ft 2 kts 354°
2026-05-06 14:48 23.60520 58.28845 53 ft 1 kts 354°
2026-05-06 14:48 23.60526 58.28844 53 ft 0 kts 355°
2026-05-06 14:55 23.60543 58.28842 53 ft 7 kts 347°
2026-05-06 14:55 23.60572 58.28786 53 ft 10 kts 269°
2026-05-06 14:55 23.60566 58.28695 53 ft 13 kts 265°
2026-05-06 14:55 23.60557 58.28582 53 ft 16 kts 265°
2026-05-06 14:56 23.60546 58.28450 53 ft 18 kts 265°
2026-05-06 14:56 23.60535 58.28304 53 ft 19 kts 265°
2026-05-06 14:56 23.60523 58.28163 53 ft 18 kts 265°
2026-05-06 14:56 23.60512 58.28026 53 ft 18 kts 265°
2026-05-06 14:57 23.60500 58.27885 53 ft 18 kts 265°
2026-05-06 14:57 23.60489 58.27743 53 ft 18 kts 265°
2026-05-06 14:57 23.60478 58.27600 53 ft 19 kts 265°
2026-05-06 14:57 23.60466 58.27454 53 ft 19 kts 264°
2026-05-06 14:58 23.60454 58.27307 53 ft 19 kts 265°
2026-05-06 14:58 23.60442 58.27159 53 ft 19 kts 265°
2026-05-06 14:58 23.60431 58.27011 53 ft 19 kts 265°
2026-05-06 14:58 23.60419 58.26860 53 ft 19 kts 265°
2026-05-06 14:59 23.60406 58.26710 53 ft 20 kts 264°
2026-05-06 14:59 23.60393 58.26559 53 ft 20 kts 264°
2026-05-06 14:59 23.60381 58.26409 53 ft 18 kts 264°
2026-05-06 14:59 23.60370 58.26273 53 ft 18 kts 265°
2026-05-06 15:00 23.60360 58.26151 53 ft 11 kts 265°
2026-05-06 15:00 23.60354 58.26067 53 ft 11 kts 265°
2026-05-06 15:00 23.60347 58.25974 53 ft 12 kts 265°
2026-05-06 15:00 23.60339 58.25873 53 ft 13 kts 264°
2026-05-06 15:01 23.60331 58.25775 53 ft 12 kts 274°
2026-05-06 15:01 23.60382 58.25721 53 ft 10 kts 352°
2026-05-06 15:01 23.60457 58.25715 53 ft 11 kts 359°
2026-05-06 15:01 23.60538 58.25737 53 ft 12 kts 32°
2026-05-06 15:02 23.60590 58.25816 53 ft 13 kts 73°
2026-05-06 15:02 23.60598 58.25861 53 ft 0 kts 84°
2026-05-06 15:02 23.60600 58.25879 53 ft 13 kts 84°
2026-05-06 15:03 23.60630 58.26248 53 ft 82 kts 84°
2026-05-06 15:03 23.60700 58.27104 54 ft 140 kts 85°
2026-05-06 15:03 23.60788 58.28304 216 ft 169 kts 85°
2026-05-06 15:03 23.60898 58.29556 780 ft 169 kts 84°
2026-05-06 15:04 23.61003 58.30810 1442 ft 165 kts 85°
2026-05-06 15:04 23.61094 58.32032 1986 ft 167 kts 85°
2026-05-06 15:04 23.61192 58.33353 2278 ft 182 kts 85°
2026-05-06 15:04 23.61301 58.34788 2555 ft 198 kts 85°
2026-05-06 15:05 23.61422 58.36348 2823 ft 218 kts 85°
2026-05-06 15:05 23.61616 58.38054 3165 ft 236 kts 73°
2026-05-06 15:05 23.62478 58.39639 3519 ft 254 kts 44°
2026-05-06 15:05 23.64031 58.40598 3955 ft 268 kts 15°
2026-05-06 15:06 23.65916 58.40624 4606 ft 274 kts 346°
2026-05-06 15:06 23.67608 58.39673 5332 ft 277 kts 319°
2026-05-06 15:06 23.68708 58.37990 6057 ft 281 kts 292°
2026-05-06 15:06 23.69110 58.35904 6731 ft 286 kts 271°
2026-05-06 15:07 23.69143 58.33716 7393 ft 292 kts 270°
2026-05-06 15:07 23.69154 58.31541 8191 ft 291 kts 270°
2026-05-06 15:07 23.69170 58.29352 9043 ft 290 kts 269°
2026-05-06 15:07 23.69186 58.27148 9756 ft 294 kts 269°
2026-05-06 15:08 23.69194 58.24910 10330 ft 303 kts 270°
2026-05-06 15:08 23.69211 58.22546 10721 ft 319 kts 271°
2026-05-06 15:08 23.69236 58.20048 11034 ft 337 kts 270°
2026-05-06 15:08 23.69262 58.17455 11333 ft 353 kts 271°
2026-05-06 15:09 23.69278 58.14719 11843 ft 362 kts 271°
2026-05-06 15:09 23.69301 58.11988 12508 ft 365 kts 271°
2026-05-06 15:09 23.69325 58.09204 13132 ft 369 kts 271°
2026-05-06 15:09 23.69344 58.06427 13737 ft 373 kts 271°
2026-05-06 15:10 23.69367 58.03581 14339 ft 377 kts 271°
2026-05-06 15:10 23.69388 58.00699 14910 ft 381 kts 271°
2026-05-06 15:10 23.69410 57.97794 15511 ft 384 kts 271°
2026-05-06 15:10 23.69488 57.94907 16080 ft 387 kts 278°
2026-05-06 15:11 23.70125 57.92056 16662 ft 387 kts 293°
2026-05-06 15:11 23.71419 57.89480 17150 ft 386 kts 308°
2026-05-06 15:11 23.73040 57.87180 17736 ft 388 kts 310°
2026-05-06 15:11 23.74745 57.84867 18233 ft 391 kts 310°
2026-05-06 15:12 23.76460 57.82539 18712 ft 394 kts 310°
2026-05-06 15:12 23.78156 57.80220 19207 ft 396 kts 309°
2026-05-06 15:12 23.79871 57.77861 19693 ft 398 kts 309°
2026-05-06 15:12 23.81598 57.75474 20187 ft 399 kts 309°
2026-05-06 15:13 23.83327 57.73078 20697 ft 400 kts 308°
2026-05-06 15:13 23.85041 57.70699 21145 ft 401 kts 308°
2026-05-06 15:13 23.86766 57.68302 21564 ft 403 kts 308°
2026-05-06 15:13 23.88500 57.65890 22008 ft 406 kts 307°
2026-05-06 15:14 23.90242 57.63464 22404 ft 407 kts 307°
2026-05-06 15:14 23.91996 57.61017 22841 ft 409 kts 307°
2026-05-06 15:14 23.93744 57.58579 23252 ft 410 kts 307°
2026-05-06 15:14 23.95499 57.56127 23617 ft 413 kts 307°
2026-05-06 15:15 23.97291 57.53625 23983 ft 415 kts 307°
2026-05-06 15:15 23.99056 57.51165 24373 ft 417 kts 307°
2026-05-06 15:15 24.00862 57.48650 24820 ft 417 kts 307°
2026-05-06 15:15 24.02648 57.46165 25237 ft 417 kts 307°
2026-05-06 15:16 24.04434 57.43675 25598 ft 418 kts 307°
2026-05-06 15:16 24.06227 57.41171 25945 ft 420 kts 307°
2026-05-06 15:16 24.08049 57.38626 26318 ft 422 kts 307°
2026-05-06 15:16 24.09848 57.36110 26669 ft 423 kts 307°
2026-05-06 15:17 24.11695 57.33532 27003 ft 425 kts 306°
2026-05-06 15:17 24.13529 57.30973 27319 ft 427 kts 306°
2026-05-06 15:17 24.15392 57.28367 27671 ft 428 kts 306°
2026-05-06 15:17 24.17273 57.25732 28025 ft 429 kts 306°
2026-05-06 15:18 24.19123 57.23137 28395 ft 430 kts 306°
2026-05-06 15:18 24.20967 57.20551 28717 ft 431 kts 306°
2026-05-06 15:18 24.22818 57.17952 29045 ft 432 kts 306°
2026-05-06 15:18 24.24665 57.15355 29349 ft 434 kts 306°
2026-05-06 15:19 24.26527 57.12736 29588 ft 437 kts 306°
2026-05-06 15:19 24.28396 57.10107 29860 ft 438 kts 306°
2026-05-06 15:19 24.30263 57.07482 30248 ft 437 kts 306°
2026-05-06 15:19 24.32119 57.04872 30648 ft 435 kts 306°
2026-05-06 15:20 24.33979 57.02248 31033 ft 434 kts 306°
2026-05-06 15:20 24.35841 56.99624 31418 ft 433 kts 305°
2026-05-06 15:20 24.37667 56.97046 31790 ft 432 kts 305°
2026-05-06 15:20 24.39526 56.94420 32166 ft 430 kts 306°
2026-05-06 15:21 24.41335 56.91862 32537 ft 429 kts 306°
2026-05-06 15:21 24.43171 56.89267 32923 ft 428 kts 306°
2026-05-06 15:21 24.45021 56.86651 33312 ft 427 kts 305°
2026-05-06 15:21 24.46849 56.84064 33698 ft 426 kts 305°
2026-05-06 15:22 24.48644 56.81518 34079 ft 425 kts 305°
2026-05-06 15:22 24.50465 56.78934 34459 ft 424 kts 305°
2026-05-06 15:22 24.52256 56.76395 34826 ft 423 kts 305°
2026-05-06 15:22 24.54051 56.73851 35169 ft 422 kts 305°
2026-05-06 15:23 24.55866 56.71288 35480 ft 422 kts 305°
2026-05-06 15:23 24.57661 56.68756 35751 ft 422 kts 305°
2026-05-06 15:23 24.59452 56.66227 36017 ft 422 kts 305°
2026-05-06 15:23 24.61242 56.63692 36254 ft 422 kts 305°
2026-05-06 15:24 24.63056 56.61121 36453 ft 423 kts 305°
2026-05-06 15:24 24.64849 56.58577 36598 ft 425 kts 305°
2026-05-06 15:24 24.66646 56.56025 36785 ft 425 kts 305°
2026-05-06 15:24 24.68467 56.53440 36963 ft 426 kts 305°
2026-05-06 15:25 24.70272 56.50880 37109 ft 427 kts 305°
2026-05-06 15:25 24.72105 56.48278 37255 ft 428 kts 305°
2026-05-06 15:25 24.73910 56.45713 37398 ft 429 kts 305°
2026-05-06 15:25 24.75754 56.43087 37502 ft 429 kts 305°
2026-05-06 15:26 24.77568 56.40503 37658 ft 429 kts 305°
2026-05-06 15:26 24.79382 56.37919 37778 ft 430 kts 305°
2026-05-06 15:26 24.81195 56.35282 37792 ft 431 kts 304°
2026-05-06 15:27 24.84763 56.29950 37791 ft 430 kts 303°
2026-05-06 15:27 24.88178 56.24548 37772 ft 430 kts 299°
2026-05-06 15:28 24.91190 56.18846 37806 ft 434 kts 297°
2026-05-06 15:28 24.94181 56.13017 37781 ft 439 kts 297°
2026-05-06 15:29 24.97732 56.07591 37823 ft 444 kts 311°
2026-05-06 15:29 25.02667 56.03438 37791 ft 451 kts 327°
2026-05-06 15:30 25.08586 56.00969 37805 ft 461 kts 343°
2026-05-06 15:30 25.14959 55.99577 37781 ft 462 kts 345°
2026-05-06 15:31 25.21280 55.98255 37796 ft 462 kts 345°
2026-05-06 15:31 25.27566 55.96924 37789 ft 461 kts 345°
2026-05-06 15:32 25.37056 55.94897 37768 ft 460 kts 344°
2026-05-06 15:32 25.43344 55.93544 37754 ft 461 kts 344°
2026-05-06 15:33 25.49651 55.92187 37753 ft 461 kts 344°
2026-05-06 15:33 25.55922 55.90838 37752 ft 460 kts 344°
2026-05-06 15:34 25.62214 55.89483 37755 ft 460 kts 344°
2026-05-06 15:34 25.68540 55.88119 37754 ft 460 kts 343°
2026-05-06 15:35 25.74803 55.86762 37754 ft 460 kts 343°
2026-05-06 15:35 25.81091 55.85402 37753 ft 459 kts 343°
2026-05-06 15:36 25.87359 55.84040 37752 ft 458 kts 343°
2026-05-06 15:36 25.93629 55.82680 37745 ft 458 kts 343°
2026-05-06 15:37 25.99902 55.81311 37744 ft 458 kts 343°
2026-05-06 15:37 26.06173 55.80034 37742 ft 462 kts 347°
2026-05-06 15:38 26.12530 55.78969 37739 ft 457 kts 341°
2026-05-06 15:38 26.18475 55.76572 37740 ft 446 kts 327°
2026-05-06 15:39 26.23491 55.72739 37740 ft 436 kts 313°
2026-05-06 15:39 26.27534 55.67798 37741 ft 430 kts 305°
2026-05-06 15:40 26.31280 55.62589 37741 ft 430 kts 304°
2026-05-06 15:40 26.35013 55.57386 37735 ft 429 kts 304°
2026-05-06 15:41 26.38732 55.52217 37729 ft 430 kts 305°
2026-05-06 15:41 26.42493 55.47040 37732 ft 430 kts 305°
2026-05-06 15:42 26.46253 55.41850 37732 ft 429 kts 304°
2026-05-06 15:42 26.50007 55.36647 37734 ft 430 kts 304°
2026-05-06 15:43 26.53767 55.31432 37740 ft 429 kts 304°
2026-05-06 15:43 26.57482 55.26273 37740 ft 428 kts 304°
2026-05-06 15:44 26.61216 55.21080 37742 ft 428 kts 304°
2026-05-06 15:44 26.64927 55.15916 37750 ft 428 kts 304°
2026-05-06 15:45 26.68659 55.10717 37761 ft 427 kts 304°
2026-05-06 15:45 26.72373 55.05530 37761 ft 428 kts 304°
2026-05-06 15:46 26.76093 55.00330 37765 ft 427 kts 304°
2026-05-06 15:46 26.79799 54.95146 37768 ft 427 kts 304°
2026-05-06 15:47 26.83501 54.89954 37777 ft 427 kts 304°
2026-05-06 15:47 26.87180 54.84780 37790 ft 427 kts 303°
2026-05-06 15:48 26.90875 54.79572 37800 ft 428 kts 303°
2026-05-06 15:48 26.94580 54.74344 37822 ft 428 kts 303°
2026-05-06 15:49 26.98266 54.69134 37845 ft 426 kts 303°
2026-05-06 15:49 27.01947 54.63930 37868 ft 425 kts 303°
2026-05-06 15:50 27.05618 54.58730 37885 ft 425 kts 303°
2026-05-06 15:50 27.09267 54.53552 37895 ft 425 kts 303°
2026-05-06 15:51 27.12964 54.48331 37907 ft 424 kts 303°
2026-05-06 15:51 27.16654 54.43121 37926 ft 425 kts 303°
2026-05-06 15:52 27.20312 54.37926 37957 ft 425 kts 303°
2026-05-06 15:52 27.23984 54.32688 37997 ft 424 kts 302°
2026-05-06 15:53 27.27611 54.27494 38034 ft 423 kts 302°
2026-05-06 15:53 27.31229 54.22309 38051 ft 423 kts 303°
2026-05-06 15:54 27.34865 54.17105 38046 ft 424 kts 302°
2026-05-06 15:54 27.38498 54.11898 38034 ft 423 kts 302°
2026-05-06 15:55 27.42146 54.06663 38019 ft 422 kts 302°
2026-05-06 15:55 27.45756 54.01470 37996 ft 423 kts 302°
2026-05-06 15:56 27.49438 53.96283 37966 ft 426 kts 305°
2026-05-06 15:56 27.53574 53.91451 37953 ft 431 kts 311°
2026-05-06 15:57 27.58206 53.87120 37958 ft 437 kts 317°
2026-05-06 15:57 27.63352 53.83337 37968 ft 441 kts 322°
2026-05-06 15:58 27.68669 53.79938 37972 ft 442 kts 323°
2026-05-06 15:58 27.74042 53.76528 37966 ft 443 kts 323°
2026-05-06 15:59 27.79411 53.73120 37972 ft 442 kts 323°
2026-05-06 15:59 27.84778 53.69704 37977 ft 443 kts 323°
2026-05-06 16:00 27.90181 53.66262 37994 ft 444 kts 322°
2026-05-06 16:00 27.95550 53.62839 38018 ft 443 kts 322°
2026-05-06 16:01 28.00917 53.59409 38032 ft 443 kts 323°
2026-05-06 16:01 28.06284 53.55978 38042 ft 444 kts 323°
2026-05-06 16:02 28.11681 53.52533 38060 ft 443 kts 322°
2026-05-06 16:02 28.17055 53.49109 38058 ft 443 kts 322°
2026-05-06 16:03 28.22458 53.45655 38047 ft 445 kts 322°
2026-05-06 16:03 28.27834 53.42199 38045 ft 444 kts 322°
2026-05-06 16:04 28.33197 53.38750 38054 ft 444 kts 322°
2026-05-06 16:04 28.38590 53.35277 38084 ft 444 kts 322°
2026-05-06 16:05 28.43953 53.31791 38110 ft 443 kts 321°
2026-05-06 16:05 28.49294 53.28322 38132 ft 442 kts 321°
2026-05-06 16:06 28.54629 53.24868 38147 ft 443 kts 321°
2026-05-06 16:06 28.59990 53.21354 38167 ft 442 kts 321°
2026-05-06 16:07 28.65305 53.17863 38227 ft 441 kts 321°
2026-05-06 16:07 28.70611 53.14366 38267 ft 442 kts 320°
2026-05-06 16:08 28.75934 53.10856 38320 ft 442 kts 320°
2026-05-06 16:08 28.81261 53.07336 38339 ft 442 kts 320°
2026-05-06 16:09 28.86606 53.03801 38329 ft 443 kts 320°
2026-05-06 16:09 28.91939 53.00270 38303 ft 444 kts 320°
2026-05-06 16:10 28.97271 52.96733 38295 ft 444 kts 320°
2026-05-06 16:10 29.02613 52.93189 38319 ft 444 kts 321°
2026-05-06 16:11 29.07929 52.89666 38329 ft 443 kts 320°
2026-05-06 16:11 29.13318 52.86103 38355 ft 444 kts 320°
2026-05-06 16:12 29.18653 52.82578 38309 ft 442 kts 320°
2026-05-06 16:12 29.23990 52.79029 38315 ft 444 kts 320°
2026-05-06 16:13 29.29306 52.75482 38272 ft 445 kts 320°
2026-05-06 16:13 29.34659 52.71903 38164 ft 446 kts 320°
2026-05-06 16:14 29.40029 52.68303 38088 ft 447 kts 320°
2026-05-06 16:14 29.45392 52.64708 38080 ft 446 kts 320°
2026-05-06 16:15 29.50565 52.60877 38069 ft 438 kts 314°
2026-05-06 16:15 29.55258 52.56557 38067 ft 430 kts 308°
2026-05-06 16:16 29.59479 52.51779 38065 ft 424 kts 303°
2026-05-06 16:16 29.63366 52.46718 38072 ft 421 kts 302°
2026-05-06 16:17 29.67223 52.41643 38063 ft 423 kts 302°
2026-05-06 16:17 29.71085 52.36554 38123 ft 423 kts 302°
2026-05-06 16:18 29.74953 52.31442 38178 ft 423 kts 301°
2026-05-06 16:18 29.76869 52.28903 38291 ft 424 kts 301°
2026-05-06 16:18 29.78813 52.26333 38330 ft 423 kts 301°
2026-05-06 16:19 29.82729 52.21261 38371 ft 427 kts 303°
2026-05-06 16:19 29.87053 52.16515 38373 ft 433 kts 309°
2026-05-06 16:20 29.91825 52.12231 38361 ft 439 kts 315°
2026-05-06 16:20 29.96975 52.08383 38365 ft 444 kts 317°
2026-05-06 16:21 30.02257 52.04568 38362 ft 445 kts 317°
2026-05-06 16:21 30.07510 52.00777 38371 ft 447 kts 317°
2026-05-06 16:22 30.12806 51.96951 38367 ft 446 kts 317°
2026-05-06 16:22 30.18064 51.93166 38394 ft 446 kts 317°
2026-05-06 16:23 30.23316 51.89363 38408 ft 445 kts 317°
2026-05-06 16:23 30.28562 51.85554 38411 ft 446 kts 316°
2026-05-06 16:24 30.33800 51.81741 38425 ft 446 kts 316°
2026-05-06 16:24 30.39049 51.77913 38409 ft 445 kts 316°
2026-05-06 16:25 30.44281 51.74092 38421 ft 445 kts 316°
2026-05-06 16:25 30.49528 51.70256 38375 ft 445 kts 316°
2026-05-06 16:26 30.52131 51.68351 38259 ft 445 kts 316°
2026-05-06 16:26 30.54735 51.66443 38211 ft 445 kts 316°
2026-05-06 16:26 30.60008 51.62571 38186 ft 446 kts 316°
2026-05-06 16:27 30.65239 51.58725 38170 ft 445 kts 316°
2026-05-06 16:27 30.70336 51.54970 38191 ft 447 kts 316°
2026-05-06 16:28 30.75524 51.51015 38193 ft 446 kts 315°
2026-05-06 16:28 30.80676 51.47052 38184 ft 443 kts 315°
2026-05-06 16:29 30.85827 51.43084 38165 ft 444 kts 315°
2026-05-06 16:29 30.90973 51.39115 38223 ft 445 kts 315°
2026-05-06 16:30 30.95281 51.35788 38208 ft 444 kts 315°
2026-05-06 16:30 30.98700 51.33141 38331 ft 444 kts 314°
2026-05-06 16:30 31.01281 51.31132 38368 ft 443 kts 314°
2026-05-06 16:31 31.06408 51.27145 38336 ft 444 kts 314°
2026-05-06 16:31 31.11566 51.23142 38357 ft 445 kts 315°
2026-05-06 16:32 31.16634 51.19235 38349 ft 445 kts 315°
2026-05-06 16:32 31.21785 51.15249 38390 ft 444 kts 314°
2026-05-06 16:33 31.26942 51.11243 38343 ft 445 kts 315°
2026-05-06 16:34 31.34688 51.05209 38391 ft 443 kts 315°
2026-05-06 16:34 31.39797 51.01224 38351 ft 444 kts 314°
2026-05-06 16:35 31.44962 50.97184 38365 ft 446 kts 314°
2026-05-06 16:35 31.50110 50.93154 38379 ft 444 kts 315°
2026-05-06 16:36 31.55251 50.89125 38366 ft 442 kts 315°
2026-05-06 16:36 31.60351 50.85125 38397 ft 442 kts 315°
2026-05-06 16:37 31.65442 50.81123 38403 ft 443 kts 315°
2026-05-06 16:37 31.70570 50.77086 38427 ft 445 kts 315°
2026-05-06 16:38 31.75683 50.73056 38432 ft 443 kts 315°
2026-05-06 16:38 31.80817 50.69008 38441 ft 445 kts 315°
2026-05-06 16:39 31.85949 50.64954 38424 ft 442 kts 315°
2026-05-06 16:39 31.91021 50.60943 38423 ft 442 kts 314°
2026-05-06 16:40 31.96144 50.56878 38460 ft 446 kts 315°
2026-05-06 16:40 32.01297 50.52792 38392 ft 445 kts 314°
2026-05-06 16:41 32.06451 50.48694 38368 ft 443 kts 315°
2026-05-06 16:41 32.11578 50.44623 38387 ft 446 kts 315°
2026-05-06 16:42 32.16720 50.40555 38352 ft 445 kts 315°
2026-05-06 16:42 32.21849 50.36478 38400 ft 444 kts 315°
2026-05-06 16:43 32.26978 50.32376 38402 ft 445 kts 314°
2026-05-06 16:43 32.32090 50.28268 38384 ft 443 kts 314°
2026-05-06 16:44 32.37182 50.24181 38396 ft 443 kts 314°
2026-05-06 16:44 32.42294 50.20074 38374 ft 445 kts 314°
2026-05-06 16:45 32.47446 50.15928 38374 ft 446 kts 315°
2026-05-06 16:45 32.52545 50.11830 38378 ft 448 kts 314°
2026-05-06 16:46 32.57713 50.07660 38408 ft 449 kts 315°
2026-05-06 16:46 32.62859 50.03515 38401 ft 448 kts 314°
2026-05-06 16:47 32.67982 49.99374 38399 ft 444 kts 315°
2026-05-06 16:47 32.73090 49.95239 38403 ft 446 kts 315°
2026-05-06 16:48 32.78213 49.91093 38384 ft 445 kts 315°
2026-05-06 16:48 32.83316 49.86955 38390 ft 445 kts 314°
2026-05-06 16:49 32.88442 49.82778 38401 ft 448 kts 315°
2026-05-06 16:49 32.93586 49.78605 38380 ft 445 kts 315°
2026-05-06 16:50 32.98685 49.74437 38417 ft 447 kts 315°
2026-05-06 16:50 33.03817 49.70251 38361 ft 448 kts 315°
2026-05-06 16:51 33.08964 49.66047 38411 ft 447 kts 315°
2026-05-06 16:51 33.14104 49.61849 38365 ft 446 kts 315°
2026-05-06 16:52 33.19262 49.57636 38321 ft 446 kts 315°
2026-05-06 16:52 33.24363 49.53435 38391 ft 445 kts 315°
2026-05-06 16:53 33.29425 49.49242 38373 ft 446 kts 314°
2026-05-06 16:53 33.34515 49.45011 38339 ft 445 kts 314°
2026-05-06 16:54 33.39595 49.40769 38333 ft 446 kts 314°
2026-05-06 16:54 33.44677 49.36528 38298 ft 446 kts 314°
2026-05-06 16:55 33.49768 49.32256 38276 ft 443 kts 313°
2026-05-06 16:55 33.54841 49.27977 38278 ft 445 kts 314°
2026-05-06 16:56 33.59933 49.23689 38285 ft 446 kts 314°
2026-05-06 16:56 33.64978 49.19450 38247 ft 446 kts 313°
2026-05-06 16:57 33.70070 49.15161 38251 ft 446 kts 314°
2026-05-06 16:57 33.75139 49.10886 38263 ft 446 kts 314°
2026-05-06 16:58 33.80197 49.06612 38268 ft 445 kts 314°
2026-05-06 16:58 33.85258 49.02334 38253 ft 447 kts 314°
2026-05-06 16:59 33.90351 48.98022 38263 ft 447 kts 314°
2026-05-06 16:59 33.95428 48.93718 38289 ft 446 kts 314°
2026-05-06 17:00 34.00494 48.89417 38276 ft 448 kts 314°
2026-05-06 17:00 34.05579 48.85090 38270 ft 447 kts 314°
2026-05-06 17:01 34.10650 48.80773 38263 ft 445 kts 314°
2026-05-06 17:01 34.15742 48.76460 38220 ft 446 kts 314°
2026-05-06 17:02 34.20819 48.72143 38261 ft 445 kts 314°
2026-05-06 17:02 34.25858 48.67835 38241 ft 446 kts 314°
2026-05-06 17:03 34.30955 48.63467 38244 ft 448 kts 314°
2026-05-06 17:03 34.35990 48.59152 38246 ft 447 kts 314°
2026-05-06 17:04 34.41073 48.54780 38230 ft 446 kts 314°
2026-05-06 17:04 34.46135 48.50424 38266 ft 446 kts 314°
2026-05-06 17:05 34.51209 48.46046 38179 ft 447 kts 314°
2026-05-06 17:05 34.56273 48.41675 38202 ft 446 kts 314°
2026-05-06 17:06 34.61333 48.37295 38168 ft 447 kts 314°
2026-05-06 17:06 34.66383 48.32917 38143 ft 446 kts 314°
2026-05-06 17:07 34.71433 48.28508 38125 ft 446 kts 314°
2026-05-06 17:07 34.76489 48.24101 38159 ft 447 kts 314°
2026-05-06 17:08 34.81546 48.19697 38223 ft 448 kts 314°
2026-05-06 17:08 34.86607 48.15289 38195 ft 447 kts 314°
2026-05-06 17:09 34.91661 48.10874 38156 ft 448 kts 314°
2026-05-06 17:09 34.96710 48.06457 38167 ft 447 kts 314°
2026-05-06 17:10 35.01762 48.02031 38181 ft 449 kts 314°
2026-05-06 17:10 35.06811 47.97602 38175 ft 448 kts 314°
2026-05-06 17:11 35.11945 47.93252 38194 ft 450 kts 317°
2026-05-06 17:11 35.17194 47.89212 38160 ft 452 kts 318°
2026-05-06 17:12 35.22492 47.85138 38151 ft 454 kts 318°
2026-05-06 17:12 35.27845 47.80998 38169 ft 453 kts 317°
2026-05-06 17:13 35.33179 47.76854 38162 ft 454 kts 317°
2026-05-06 17:13 35.38483 47.72725 38155 ft 454 kts 317°
2026-05-06 17:14 35.43833 47.68553 38114 ft 456 kts 317°
2026-05-06 17:14 35.49170 47.64383 38173 ft 455 kts 317°
2026-05-06 17:15 35.54511 47.60206 38136 ft 455 kts 317°
2026-05-06 17:15 35.59856 47.56015 38154 ft 456 kts 317°
2026-05-06 17:16 35.65200 47.51819 38140 ft 456 kts 317°
2026-05-06 17:16 35.70554 47.47612 38151 ft 458 kts 317°
2026-05-06 17:17 35.75898 47.43402 38151 ft 458 kts 317°
2026-05-06 17:17 35.81259 47.39175 38141 ft 458 kts 317°
2026-05-06 17:18 35.86648 47.34916 38136 ft 459 kts 317°
2026-05-06 17:18 35.91993 47.30663 38152 ft 458 kts 317°
2026-05-06 17:19 35.97360 47.26391 38146 ft 460 kts 317°
2026-05-06 17:19 36.02739 47.22115 38136 ft 459 kts 317°
2026-05-06 17:20 36.08114 47.17837 38132 ft 461 kts 317°
2026-05-06 17:20 36.13514 47.13545 38156 ft 461 kts 317°
2026-05-06 17:21 36.18916 47.09252 38142 ft 460 kts 317°
2026-05-06 17:21 36.24318 47.04954 38130 ft 462 kts 317°
2026-05-06 17:22 36.29704 47.00671 38147 ft 462 kts 317°
2026-05-06 17:22 36.35106 46.96360 38143 ft 460 kts 317°
2026-05-06 17:23 36.40473 46.92061 38143 ft 460 kts 317°
2026-05-06 17:23 36.45845 46.87750 38139 ft 460 kts 317°
2026-05-06 17:24 36.51207 46.83435 38121 ft 462 kts 317°
2026-05-06 17:24 36.56614 46.79081 38134 ft 462 kts 317°
2026-05-06 17:25 36.62009 46.74726 38120 ft 462 kts 317°
2026-05-06 17:25 36.67409 46.70363 38107 ft 463 kts 317°
2026-05-06 17:26 36.72786 46.66008 38104 ft 465 kts 317°
2026-05-06 17:26 36.78213 46.61608 38085 ft 465 kts 317°
2026-05-06 17:27 36.83636 46.57206 38139 ft 464 kts 317°
2026-05-06 17:27 36.89053 46.52796 38086 ft 465 kts 317°
2026-05-06 17:28 36.94465 46.48386 38108 ft 464 kts 317°
2026-05-06 17:28 36.99878 46.43962 38114 ft 466 kts 317°
2026-05-06 17:29 37.05267 46.39553 38091 ft 465 kts 317°
2026-05-06 17:29 37.10716 46.35091 38084 ft 465 kts 317°
2026-05-06 17:30 37.16117 46.30662 37972 ft 464 kts 316°
2026-05-06 17:30 37.21523 46.26216 37966 ft 464 kts 316°
2026-05-06 17:31 37.26928 46.21761 37953 ft 465 kts 316°
2026-05-06 17:31 37.32329 46.17305 37959 ft 464 kts 316°
2026-05-06 17:32 37.37699 46.12862 37965 ft 465 kts 316°
2026-05-06 17:32 37.42845 46.08598 37980 ft 465 kts 316°
2026-05-06 17:33 37.48206 46.04145 37961 ft 465 kts 317°
2026-05-06 17:33 37.53612 45.99645 37984 ft 466 kts 316°
2026-05-06 17:34 37.59040 45.95150 37991 ft 467 kts 318°
2026-05-06 17:34 37.64738 45.91156 38056 ft 475 kts 324°
2026-05-06 17:35 37.70853 45.87754 38047 ft 481 kts 328°
2026-05-06 17:35 37.77015 45.84484 38029 ft 481 kts 328°
2026-05-06 17:36 37.86245 45.79552 38033 ft 480 kts 328°
2026-05-06 17:36 37.92390 45.76252 38053 ft 480 kts 328°
2026-05-06 17:37 37.98497 45.72963 38032 ft 480 kts 328°
2026-05-06 17:37 38.04647 45.69646 38047 ft 479 kts 328°
2026-05-06 17:38 38.10813 45.66312 38048 ft 479 kts 328°
2026-05-06 17:38 38.16959 45.63002 38068 ft 479 kts 328°
2026-05-06 17:39 38.23071 45.59690 38059 ft 480 kts 328°
2026-05-06 17:39 38.29227 45.56336 38077 ft 481 kts 328°
2026-05-06 17:40 38.35296 45.52835 38070 ft 473 kts 322°
2026-05-06 17:40 38.40556 45.48114 38059 ft 456 kts 309°
2026-05-06 17:41 38.44728 45.42206 38059 ft 443 kts 297°
2026-05-06 17:41 38.47760 45.35544 38054 ft 432 kts 289°
2026-05-06 17:42 38.50390 45.28659 38053 ft 431 kts 288°
2026-05-06 17:42 38.53003 45.21760 38049 ft 431 kts 288°
2026-05-06 17:43 38.55624 45.14857 38041 ft 433 kts 288°
2026-05-06 17:43 38.58245 45.07960 38043 ft 432 kts 288°
2026-05-06 17:44 38.60815 45.01189 38052 ft 433 kts 288°
2026-05-06 17:44 38.63434 44.94275 38055 ft 435 kts 288°
2026-05-06 17:45 38.66056 44.87340 38072 ft 435 kts 288°
2026-05-06 17:45 38.68684 44.80365 38073 ft 436 kts 288°
2026-05-06 17:46 38.71312 44.73380 38079 ft 436 kts 289°
2026-05-06 17:46 38.73940 44.66381 38082 ft 436 kts 289°
2026-05-06 17:47 38.76559 44.59390 38081 ft 436 kts 289°
2026-05-06 17:47 38.79159 44.52425 38077 ft 437 kts 289°
2026-05-06 17:48 38.81776 44.45404 38076 ft 437 kts 289°
2026-05-06 17:48 38.84383 44.38382 38081 ft 436 kts 289°
2026-05-06 17:49 38.86976 44.31374 38083 ft 436 kts 288°
2026-05-06 17:49 38.89567 44.24349 38075 ft 436 kts 288°
2026-05-06 17:50 38.92157 44.17334 38075 ft 435 kts 288°
2026-05-06 17:50 38.94733 44.10316 38094 ft 435 kts 289°
2026-05-06 17:51 38.97307 44.03286 38089 ft 436 kts 289°
2026-05-06 17:51 38.99868 43.96273 38087 ft 437 kts 288°
2026-05-06 17:52 39.02445 43.89186 38085 ft 439 kts 289°
2026-05-06 17:52 39.05022 43.82088 38094 ft 439 kts 289°
2026-05-06 17:53 39.07601 43.74971 38081 ft 440 kts 289°
2026-05-06 17:53 39.10183 43.67829 38093 ft 440 kts 289°
2026-05-06 17:54 39.12780 43.60707 38077 ft 440 kts 289°
2026-05-06 17:54 39.15379 43.53534 38059 ft 441 kts 289°
2026-05-06 17:55 39.17951 43.46389 38061 ft 442 kts 289°
2026-05-06 17:55 39.20509 43.39252 38063 ft 442 kts 290°
2026-05-06 17:56 39.23082 43.32045 38074 ft 440 kts 289°
2026-05-06 17:56 39.25638 43.24836 38026 ft 441 kts 289°
2026-05-06 17:57 39.28174 43.17683 38069 ft 443 kts 289°
2026-05-06 17:57 39.30730 43.10479 38086 ft 442 kts 289°
2026-05-06 17:58 39.33277 43.03268 38034 ft 442 kts 289°
2026-05-06 17:58 39.35827 42.96030 38078 ft 445 kts 289°
2026-05-06 17:59 39.38388 42.88750 38056 ft 445 kts 290°
2026-05-06 17:59 39.40928 42.81511 38078 ft 446 kts 290°
2026-05-06 18:00 39.43481 42.74219 38077 ft 446 kts 290°
2026-05-06 18:00 39.46041 42.66885 38105 ft 446 kts 290°
2026-05-06 18:01 39.48581 42.59592 38067 ft 446 kts 290°
2026-05-06 18:01 39.51121 42.52278 38086 ft 447 kts 290°
2026-05-06 18:02 39.53658 42.44957 38071 ft 447 kts 290°
2026-05-06 18:02 39.56191 42.37631 38073 ft 447 kts 290°
2026-05-06 18:03 39.58721 42.30281 38038 ft 447 kts 289°
2026-05-06 18:03 39.61231 42.22947 38041 ft 448 kts 289°
2026-05-06 18:04 39.63761 42.15556 38085 ft 449 kts 289°
2026-05-06 18:04 39.66296 42.08144 38032 ft 449 kts 290°
2026-05-06 18:05 39.68822 42.00736 38034 ft 450 kts 290°
2026-05-06 18:05 39.71346 41.93322 38064 ft 449 kts 290°
2026-05-06 18:06 39.73862 41.85907 38023 ft 450 kts 290°
2026-05-06 18:06 39.76379 41.78473 38056 ft 451 kts 290°
2026-05-06 18:07 39.78875 41.71075 38045 ft 451 kts 290°
2026-05-06 18:07 39.81388 41.63607 38023 ft 450 kts 290°
2026-05-06 18:08 39.83890 41.56156 38053 ft 451 kts 290°
2026-05-06 18:08 39.86383 41.48712 38047 ft 450 kts 290°
2026-05-06 18:09 39.88869 41.41263 38083 ft 450 kts 290°
2026-05-06 18:09 39.91365 41.33766 38104 ft 450 kts 289°
2026-05-06 18:10 39.93825 41.26320 38089 ft 449 kts 289°
2026-05-06 18:10 39.96285 41.18839 38092 ft 449 kts 289°
2026-05-06 18:11 39.98602 41.11375 38092 ft 448 kts 288°
2026-05-06 18:11 40.00919 41.03828 38097 ft 449 kts 289°
2026-05-06 18:12 40.03246 40.96250 38106 ft 450 kts 289°
2026-05-06 18:12 40.05564 40.88687 38099 ft 451 kts 289°
2026-05-06 18:13 40.07887 40.81102 38072 ft 450 kts 289°
2026-05-06 18:13 40.10199 40.73522 38041 ft 450 kts 289°
2026-05-06 18:14 40.12531 40.65946 38043 ft 451 kts 289°
2026-05-06 18:14 40.14862 40.58334 38037 ft 450 kts 289°
2026-05-06 18:15 40.17163 40.50747 38035 ft 450 kts 289°
2026-05-06 18:15 40.19447 40.43171 38040 ft 452 kts 289°
2026-05-06 18:16 40.21747 40.35531 38047 ft 453 kts 289°
2026-05-06 18:16 40.24049 40.27837 38052 ft 453 kts 288°
2026-05-06 18:17 40.26332 40.20178 38066 ft 453 kts 289°
2026-05-06 18:17 40.28616 40.12508 38064 ft 454 kts 289°
2026-05-06 18:18 40.30904 40.04805 38072 ft 455 kts 289°
2026-05-06 18:18 40.33186 39.97106 38061 ft 455 kts 289°
2026-05-06 18:19 40.35461 39.89399 38056 ft 455 kts 289°
2026-05-06 18:19 40.37733 39.81670 38062 ft 455 kts 289°
2026-05-06 18:20 40.39996 39.73933 38076 ft 457 kts 289°
2026-05-06 18:20 40.42265 39.66193 38075 ft 457 kts 289°
2026-05-06 18:21 40.44542 39.58418 38083 ft 457 kts 289°
2026-05-06 18:21 40.46806 39.50635 38096 ft 456 kts 289°
2026-05-06 18:22 40.49056 39.42865 38105 ft 456 kts 289°
2026-05-06 18:22 40.51299 39.35079 38117 ft 457 kts 289°
2026-05-06 18:23 40.53553 39.27205 38096 ft 458 kts 289°
2026-05-06 18:23 40.55774 39.19437 38114 ft 458 kts 289°
2026-05-06 18:24 40.58006 39.11605 38120 ft 458 kts 289°
2026-05-06 18:24 40.60243 39.03734 38106 ft 459 kts 289°
2026-05-06 18:25 40.62474 38.95861 38114 ft 458 kts 289°
2026-05-06 18:25 40.64677 38.88067 38110 ft 459 kts 289°
2026-05-06 18:26 40.66875 38.80196 38121 ft 459 kts 289°
2026-05-06 18:26 40.69075 38.72259 38108 ft 461 kts 289°
2026-05-06 18:27 40.71248 38.64395 38118 ft 459 kts 289°
2026-05-06 18:27 40.73422 38.56491 38128 ft 459 kts 289°
2026-05-06 18:28 40.75595 38.48567 38128 ft 459 kts 289°
2026-05-06 18:28 40.77746 38.40694 38127 ft 459 kts 289°
2026-05-06 18:29 40.79911 38.32745 38122 ft 459 kts 289°
2026-05-06 18:29 40.82061 38.24798 38122 ft 461 kts 289°
2026-05-06 18:30 40.84206 38.16860 38129 ft 462 kts 289°
2026-05-06 18:30 40.86366 38.08857 38127 ft 461 kts 289°
2026-05-06 18:31 40.88508 38.00894 38129 ft 460 kts 289°
2026-05-06 18:31 40.90633 37.92965 38129 ft 461 kts 289°
2026-05-06 18:32 40.92771 37.84973 38130 ft 460 kts 289°
2026-05-06 18:32 40.94891 37.77015 38118 ft 460 kts 289°
2026-05-06 18:33 40.97004 37.69061 38111 ft 461 kts 289°
2026-05-06 18:33 40.99115 37.61081 38114 ft 461 kts 289°
2026-05-06 18:34 41.01235 37.53049 38112 ft 461 kts 289°
2026-05-06 18:34 41.03342 37.45036 38119 ft 461 kts 289°
2026-05-06 18:35 41.05449 37.37006 38109 ft 461 kts 289°
2026-05-06 18:35 41.07538 37.28994 38110 ft 461 kts 289°
2026-05-06 18:36 41.09631 37.20924 38110 ft 462 kts 289°
2026-05-06 18:36 41.11733 37.12899 38110 ft 462 kts 289°
2026-05-06 18:37 41.13833 37.04867 38120 ft 461 kts 289°
2026-05-06 18:37 41.15913 36.96822 38119 ft 461 kts 289°
2026-05-06 18:38 41.17986 36.88755 38109 ft 462 kts 289°
2026-05-06 18:38 41.20047 36.80698 38122 ft 462 kts 289°
2026-05-06 18:39 41.22087 36.72689 38118 ft 462 kts 289°
2026-05-06 18:40 41.25153 36.60575 38123 ft 461 kts 289°
2026-05-06 18:40 41.27193 36.52532 38127 ft 461 kts 289°
2026-05-06 18:41 41.29259 36.44526 38122 ft 460 kts 290°
2026-05-06 18:41 41.31320 36.36491 38120 ft 461 kts 290°
2026-05-06 18:42 41.33375 36.28395 38120 ft 461 kts 289°
2026-05-06 18:42 41.35413 36.20316 38123 ft 461 kts 289°
2026-05-06 18:43 41.37447 36.12244 38117 ft 461 kts 289°
2026-05-06 18:43 41.39474 36.04172 38113 ft 461 kts 289°
2026-05-06 18:44 41.41509 35.96052 38117 ft 462 kts 289°
2026-05-06 18:44 41.43527 35.87965 38106 ft 461 kts 289°
2026-05-06 18:45 41.45538 35.79875 38111 ft 460 kts 289°
2026-05-06 18:45 41.47538 35.71807 38107 ft 460 kts 289°
2026-05-06 18:46 41.49528 35.63739 38106 ft 459 kts 290°
2026-05-06 18:46 41.51516 35.55671 38114 ft 459 kts 290°
2026-05-06 18:47 41.53499 35.47592 38088 ft 459 kts 289°
2026-05-06 18:47 41.55461 35.39565 38105 ft 459 kts 289°
2026-05-06 18:48 41.57441 35.31426 38121 ft 459 kts 289°
2026-05-06 18:48 41.59384 35.23381 38102 ft 458 kts 289°
2026-05-06 18:49 41.61346 35.15261 38089 ft 458 kts 289°
2026-05-06 18:49 41.63298 35.07154 38095 ft 458 kts 289°
2026-05-06 18:50 41.65232 34.99099 38100 ft 458 kts 289°
2026-05-06 18:50 41.67171 34.90996 38078 ft 457 kts 289°
2026-05-06 18:51 41.69097 34.82918 38092 ft 457 kts 289°
2026-05-06 18:51 41.71021 34.74799 38095 ft 457 kts 289°
2026-05-06 18:52 41.72930 34.66710 38092 ft 456 kts 289°
2026-05-06 18:52 41.74840 34.58614 38088 ft 457 kts 289°
2026-05-06 18:53 41.76755 34.50521 38125 ft 457 kts 290°
2026-05-06 18:53 41.78660 34.42420 38094 ft 457 kts 289°
2026-05-06 18:54 41.80549 34.34336 38071 ft 456 kts 289°
2026-05-06 18:54 41.82433 34.26201 38090 ft 456 kts 289°
2026-05-06 18:55 41.84303 34.18116 38102 ft 456 kts 289°
2026-05-06 18:55 41.86181 34.09972 38077 ft 456 kts 289°
2026-05-06 18:56 41.88047 34.01860 38086 ft 455 kts 289°
2026-05-06 18:56 41.89902 33.93759 38078 ft 455 kts 289°
2026-05-06 18:57 41.91737 33.85711 38084 ft 455 kts 289°
2026-05-06 18:57 41.93575 33.77618 38045 ft 455 kts 289°
2026-05-06 18:58 41.95381 33.69477 38083 ft 456 kts 288°
2026-05-06 18:58 41.96994 33.61238 38115 ft 455 kts 287°
2026-05-06 18:59 41.98568 33.53054 38086 ft 454 kts 287°
2026-05-06 18:59 42.00137 33.44859 38073 ft 453 kts 287°
2026-05-06 19:00 42.01705 33.36643 38094 ft 454 kts 287°
2026-05-06 19:00 42.03260 33.28438 38070 ft 454 kts 287°
2026-05-06 19:01 42.04806 33.20235 38066 ft 453 kts 287°
2026-05-06 19:01 42.06353 33.12017 38099 ft 455 kts 287°
2026-05-06 19:02 42.07934 33.03822 38083 ft 453 kts 288°
2026-05-06 19:02 42.09623 32.95661 38047 ft 453 kts 288°
2026-05-06 19:03 42.11318 32.87513 38060 ft 453 kts 288°
2026-05-06 19:03 42.13000 32.79346 38076 ft 452 kts 288°
2026-05-06 19:04 42.14645 32.71207 38080 ft 452 kts 288°
2026-05-06 19:04 42.16278 32.63075 38077 ft 452 kts 288°
2026-05-06 19:05 42.17919 32.54932 38077 ft 451 kts 288°
2026-05-06 19:05 42.19550 32.46806 38038 ft 452 kts 288°
2026-05-06 19:06 42.21178 32.38606 38080 ft 451 kts 288°
2026-05-06 19:06 42.22780 32.30461 38053 ft 451 kts 287°
2026-05-06 19:07 42.24377 32.22306 38070 ft 451 kts 288°
2026-05-06 19:07 42.25979 32.14115 38053 ft 450 kts 288°
2026-05-06 19:08 42.27573 32.06015 38075 ft 448 kts 288°
2026-05-06 19:08 42.29166 31.97928 38080 ft 448 kts 288°
2026-05-06 19:09 42.30750 31.89813 38090 ft 449 kts 288°
2026-05-06 19:09 42.32329 31.81673 38104 ft 449 kts 288°
2026-05-06 19:10 42.33904 31.73503 38083 ft 449 kts 288°
2026-05-06 19:10 42.35465 31.65364 38031 ft 449 kts 288°
2026-05-06 19:11 42.36903 31.57842 38083 ft 448 kts 288°
2026-05-06 19:11 42.38448 31.49725 38064 ft 448 kts 288°
2026-05-06 19:12 42.39988 31.41600 38036 ft 448 kts 288°
2026-05-06 19:12 42.41527 31.33430 38071 ft 447 kts 287°
2026-05-06 19:13 42.43054 31.25249 38050 ft 448 kts 287°
2026-05-06 19:13 42.44572 31.17087 38108 ft 447 kts 287°
2026-05-06 19:14 42.46088 31.08958 38102 ft 447 kts 287°
2026-05-06 19:14 42.47601 31.00869 38066 ft 447 kts 287°
2026-05-06 19:15 42.49117 30.92692 38052 ft 448 kts 287°
2026-05-06 19:15 42.50608 30.84576 38072 ft 446 kts 287°
2026-05-06 19:16 42.52101 30.76418 38075 ft 446 kts 287°
2026-05-06 19:16 42.53585 30.68262 38066 ft 447 kts 287°
2026-05-06 19:17 42.55278 30.60258 38059 ft 442 kts 296°
2026-05-06 19:17 42.58431 30.53235 38074 ft 435 kts 312°
2026-05-06 19:18 42.62844 30.47721 38091 ft 431 kts 326°
2026-05-06 19:18 42.67748 30.43035 38076 ft 432 kts 327°
2026-05-06 19:19 42.72660 30.38376 38069 ft 431 kts 327°
2026-05-06 19:19 42.77597 30.33663 38086 ft 433 kts 326°
2026-05-06 19:20 42.82528 30.28912 38088 ft 433 kts 326°
2026-05-06 19:20 42.87464 30.24156 38089 ft 432 kts 326°
2026-05-06 19:21 42.92356 30.19443 38099 ft 431 kts 326°
2026-05-06 19:21 42.97257 30.14716 38089 ft 431 kts 326°
2026-05-06 19:22 43.02155 30.09983 38063 ft 433 kts 326°
2026-05-06 19:22 43.07052 30.05241 38098 ft 432 kts 326°
2026-05-06 19:23 43.11948 30.00496 38079 ft 433 kts 326°
2026-05-06 19:23 43.16870 29.95738 38076 ft 434 kts 326°
2026-05-06 19:24 43.21771 29.90980 38086 ft 434 kts 326°
2026-05-06 19:24 43.26669 29.86206 38068 ft 432 kts 326°
2026-05-06 19:25 43.31557 29.81430 38077 ft 432 kts 326°
2026-05-06 19:25 43.36447 29.76639 38083 ft 433 kts 326°
2026-05-06 19:26 43.41337 29.71838 38069 ft 432 kts 326°
2026-05-06 19:26 43.46226 29.67026 38086 ft 433 kts 326°
2026-05-06 19:27 43.51129 29.62192 38079 ft 433 kts 326°
2026-05-06 19:27 43.55980 29.57401 38079 ft 433 kts 326°
2026-05-06 19:28 43.60893 29.52538 38057 ft 433 kts 326°
2026-05-06 19:28 43.65771 29.47700 38073 ft 433 kts 326°
2026-05-06 19:29 43.70637 29.42863 38069 ft 432 kts 326°
2026-05-06 19:29 43.75509 29.38011 38067 ft 432 kts 326°
2026-05-06 19:30 43.80362 29.33162 38067 ft 433 kts 325°
2026-05-06 19:30 43.85250 29.28244 38060 ft 434 kts 325°
2026-05-06 19:31 43.90133 29.23333 38059 ft 433 kts 325°
2026-05-06 19:31 43.97418 29.16006 38065 ft 432 kts 325°
2026-05-06 19:32 44.02277 29.11110 38058 ft 432 kts 325°
2026-05-06 19:32 44.07126 29.06217 38050 ft 432 kts 325°
2026-05-06 19:33 44.12013 29.01278 38055 ft 433 kts 325°
2026-05-06 19:33 44.16873 28.96380 38048 ft 433 kts 325°
2026-05-06 19:34 44.21588 28.91604 38067 ft 433 kts 325°
2026-05-06 19:34 44.26428 28.86682 38076 ft 432 kts 325°
2026-05-06 19:35 44.31276 28.81739 38038 ft 433 kts 325°
2026-05-06 19:35 44.36126 28.76785 38088 ft 433 kts 325°
2026-05-06 19:36 44.40972 28.71820 38071 ft 432 kts 325°
2026-05-06 19:36 44.45806 28.66858 38066 ft 432 kts 325°
2026-05-06 19:37 44.50635 28.61893 38067 ft 430 kts 325°
2026-05-06 19:37 44.55456 28.56924 38056 ft 431 kts 325°
2026-05-06 19:38 44.60257 28.51963 38062 ft 431 kts 325°
2026-05-06 19:38 44.65089 28.46957 38066 ft 431 kts 325°
2026-05-06 19:39 44.69915 28.41952 38063 ft 432 kts 325°
2026-05-06 19:39 44.74737 28.36939 38042 ft 431 kts 325°
2026-05-06 19:40 44.79540 28.31920 38058 ft 432 kts 324°
2026-05-06 19:40 44.84379 28.26841 38011 ft 432 kts 324°
2026-05-06 19:41 44.89209 28.21775 38045 ft 431 kts 324°
2026-05-06 19:41 44.93984 28.16764 38041 ft 429 kts 324°
2026-05-06 19:42 44.98757 28.11743 38041 ft 429 kts 324°
2026-05-06 19:42 45.03557 28.06681 38039 ft 430 kts 324°
2026-05-06 19:43 45.08322 28.01645 38035 ft 431 kts 324°
2026-05-06 19:43 45.13137 27.96460 38038 ft 432 kts 322°
2026-05-06 19:44 45.17582 27.90773 38034 ft 433 kts 316°
2026-05-06 19:44 45.21592 27.84386 38034 ft 434 kts 310°
2026-05-06 19:45 45.25085 27.77442 38036 ft 436 kts 306°
2026-05-06 19:45 45.28378 27.70211 38031 ft 435 kts 305°
2026-05-06 19:46 45.31625 27.63024 38028 ft 434 kts 305°
2026-05-06 19:46 45.34871 27.55823 38028 ft 434 kts 305°
2026-05-06 19:47 45.38134 27.48578 38027 ft 435 kts 305°
2026-05-06 19:47 45.41370 27.41374 38027 ft 434 kts 305°
2026-05-06 19:48 45.44630 27.34102 38025 ft 434 kts 304°
2026-05-06 19:48 45.47858 27.26856 38025 ft 434 kts 304°
2026-05-06 19:49 45.51089 27.19586 38017 ft 433 kts 304°
2026-05-06 19:49 45.54291 27.12377 38022 ft 432 kts 304°
2026-05-06 19:50 45.57515 27.05107 38012 ft 433 kts 304°
2026-05-06 19:50 45.60720 26.97863 38018 ft 433 kts 304°
2026-05-06 19:51 45.63937 26.90578 38014 ft 432 kts 304°
2026-05-06 19:51 45.67120 26.83345 38020 ft 432 kts 304°
2026-05-06 19:52 45.70289 26.76121 38014 ft 431 kts 304°
2026-05-06 19:52 45.73484 26.68827 38023 ft 431 kts 304°
2026-05-06 19:53 45.76649 26.61584 38013 ft 431 kts 304°
2026-05-06 19:53 45.79832 26.54275 38042 ft 431 kts 304°
2026-05-06 19:54 45.82993 26.47004 38054 ft 432 kts 304°
2026-05-06 19:54 45.86171 26.39671 38049 ft 431 kts 304°
2026-05-06 19:55 45.89331 26.32352 38025 ft 430 kts 303°
2026-05-06 19:55 45.92477 26.25024 38022 ft 431 kts 303°
2026-05-06 19:56 45.95616 26.17708 38010 ft 430 kts 303°
2026-05-06 19:56 45.98741 26.10415 38009 ft 431 kts 303°
2026-05-06 19:57 46.01872 26.03097 37989 ft 429 kts 303°
2026-05-06 19:57 46.05005 25.95752 38007 ft 430 kts 303°
2026-05-06 19:58 46.08117 25.88439 38001 ft 430 kts 303°
2026-05-06 19:58 46.11243 25.81088 38022 ft 429 kts 303°
2026-05-06 19:59 46.14355 25.73801 38020 ft 429 kts 303°
2026-05-06 19:59 46.17456 25.66483 38026 ft 429 kts 303°
2026-05-06 20:00 46.20551 25.59141 38021 ft 429 kts 303°
2026-05-06 20:00 46.23645 25.51772 38013 ft 429 kts 303°
2026-05-06 20:01 46.26726 25.44411 37998 ft 429 kts 303°
2026-05-06 20:01 46.29803 25.37037 37573 ft 430 kts 303°
2026-05-06 20:02 46.31337 25.33350 37109 ft 429 kts 302°
2026-05-06 20:02 46.32887 25.29604 36721 ft 428 kts 302°
2026-05-06 20:02 46.34419 25.25901 36403 ft 429 kts 302°
2026-05-06 20:02 46.35921 25.22265 36049 ft 424 kts 302°
2026-05-06 20:03 46.37439 25.18586 35301 ft 423 kts 302°
2026-05-06 20:03 46.38951 25.14920 34353 ft 427 kts 302°
2026-05-06 20:03 46.40470 25.11249 33335 ft 430 kts 302°
2026-05-06 20:03 46.42001 25.07534 32361 ft 436 kts 301°
2026-05-06 20:04 46.43410 25.03633 31452 ft 442 kts 296°
2026-05-06 20:04 46.44579 24.99518 30578 ft 447 kts 291°
2026-05-06 20:04 46.45491 24.95198 29641 ft 453 kts 285°
2026-05-06 20:04 46.46109 24.90774 28801 ft 457 kts 280°
2026-05-06 20:05 46.46444 24.86123 28169 ft 462 kts 275°
2026-05-06 20:05 46.46571 24.81535 27455 ft 465 kts 274°
2026-05-06 20:05 46.46870 24.76874 26671 ft 467 kts 279°
2026-05-06 20:05 46.47564 24.72296 25902 ft 469 kts 287°
2026-05-06 20:06 46.48638 24.67846 25182 ft 472 kts 291°
2026-05-06 20:06 46.49809 24.63425 24476 ft 465 kts 291°
2026-05-06 20:06 46.50961 24.59178 23783 ft 446 kts 291°
2026-05-06 20:06 46.52079 24.55077 23114 ft 433 kts 292°
2026-05-06 20:07 46.53170 24.51071 22473 ft 422 kts 291°
2026-05-06 20:07 46.54232 24.47160 21845 ft 413 kts 291°
2026-05-06 20:07 46.55267 24.43341 21238 ft 405 kts 291°
2026-05-06 20:07 46.56287 24.39566 20636 ft 398 kts 291°
2026-05-06 20:08 46.57288 24.35863 20050 ft 392 kts 291°
2026-05-06 20:08 46.58284 24.32153 19461 ft 387 kts 290°
2026-05-06 20:08 46.59256 24.28518 18892 ft 383 kts 290°
2026-05-06 20:08 46.60216 24.24935 18334 ft 379 kts 290°
2026-05-06 20:09 46.61167 24.21389 17766 ft 376 kts 290°
2026-05-06 20:09 46.62109 24.17875 17211 ft 374 kts 290°
2026-05-06 20:09 46.63182 24.14471 16671 ft 373 kts 300°
2026-05-06 20:09 46.64786 24.11492 16138 ft 373 kts 314°
2026-05-06 20:10 46.66794 24.09154 15608 ft 372 kts 323°
2026-05-06 20:10 46.68925 24.07078 15058 ft 370 kts 325°
2026-05-06 20:10 46.71066 24.05042 14509 ft 368 kts 325°
2026-05-06 20:10 46.73191 24.03000 13992 ft 365 kts 324°
2026-05-06 20:11 46.75282 24.00955 13462 ft 362 kts 322°
2026-05-06 20:11 46.77052 23.98368 12910 ft 355 kts 302°
2026-05-06 20:11 46.78061 23.95171 12389 ft 347 kts 282°
2026-05-06 20:11 46.78527 23.91766 11892 ft 342 kts 277°
2026-05-06 20:12 46.78905 23.88379 11386 ft 339 kts 277°
2026-05-06 20:12 46.79287 23.85007 10872 ft 332 kts 277°
2026-05-06 20:12 46.79674 23.81720 10435 ft 326 kts 278°
2026-05-06 20:12 46.80139 23.78519 10004 ft 320 kts 282°
2026-05-06 20:13 46.80735 23.75473 9876 ft 304 kts 285°
2026-05-06 20:13 46.81345 23.72618 9899 ft 291 kts 285°
2026-05-06 20:13 46.81947 23.69808 9924 ft 291 kts 285°
2026-05-06 20:13 46.82549 23.66995 9940 ft 290 kts 285°
2026-05-06 20:14 46.83144 23.64186 9947 ft 290 kts 285°
2026-05-06 20:14 46.83743 23.61373 9950 ft 291 kts 285°
2026-05-06 20:14 46.84340 23.58563 9952 ft 291 kts 285°
2026-05-06 20:14 46.84936 23.55752 9954 ft 290 kts 284°
2026-05-06 20:15 46.85338 23.52868 9946 ft 284 kts 269°
2026-05-06 20:15 46.85146 23.50044 9940 ft 280 kts 253°
2026-05-06 20:15 46.84577 23.47322 9588 ft 280 kts 249°
2026-05-06 20:15 46.83949 23.44664 9217 ft 276 kts 249°
2026-05-06 20:16 46.83326 23.42042 8647 ft 277 kts 249°
2026-05-06 20:16 46.82701 23.39387 7768 ft 277 kts 249°
2026-05-06 20:16 46.82093 23.36767 6891 ft 274 kts 250°
2026-05-06 20:16 46.81476 23.34185 6006 ft 271 kts 245°
2026-05-06 20:17 46.80358 23.32045 5164 ft 263 kts 213°
2026-05-06 20:17 46.78700 23.31073 4561 ft 251 kts 188°
2026-05-06 20:17 46.77013 23.31146 4145 ft 236 kts 166°
2026-05-06 20:17 46.75579 23.32032 4046 ft 213 kts 147°
2026-05-06 20:18 46.74514 23.33454 4023 ft 212 kts 128°
2026-05-06 20:18 46.73817 23.35354 4004 ft 215 kts 108°
2026-05-06 20:18 46.73597 23.37505 3997 ft 211 kts 92°
2026-05-06 20:18 46.73611 23.39584 3980 ft 197 kts 90°
2026-05-06 20:19 46.73647 23.41485 3969 ft 183 kts 90°
2026-05-06 20:19 46.73676 23.43298 3970 ft 177 kts 90°
2026-05-06 20:19 46.73699 23.45090 3979 ft 176 kts 91°
2026-05-06 20:19 46.73828 23.46868 4047 ft 177 kts 76°
2026-05-06 20:20 46.74252 23.48551 4083 ft 175 kts 69°
2026-05-06 20:20 46.74674 23.50114 4114 ft 158 kts 71°
2026-05-06 20:20 46.75053 23.51601 3827 ft 155 kts 74°
2026-05-06 20:20 46.75378 23.53105 3494 ft 155 kts 73°
2026-05-06 20:21 46.75713 23.54566 3216 ft 150 kts 73°
2026-05-06 20:21 46.76003 23.56013 2908 ft 148 kts 75°
2026-05-06 20:21 46.76288 23.57397 2636 ft 141 kts 73°
2026-05-06 20:21 46.76578 23.58730 2358 ft 133 kts 73°
2026-05-06 20:22 46.76868 23.59959 2111 ft 125 kts 71°
2026-05-06 20:22 46.77137 23.61154 1921 ft 124 kts 73°
2026-05-06 20:22 46.77393 23.62351 1747 ft 123 kts 73°
2026-05-06 20:22 46.77655 23.63539 1607 ft 123 kts 72°
2026-05-06 20:23 46.77914 23.64724 1454 ft 123 kts 71°
2026-05-06 20:23 46.78184 23.65925 1253 ft 122 kts 72°
2026-05-06 20:23 46.78442 23.67078 1092 ft 120 kts 72°
2026-05-06 20:23 46.78691 23.68197 1037 ft 103 kts 72°
2026-05-06 20:24 46.78852 23.68918 1033 ft 36 kts 71°
2026-05-06 20:24 46.78894 23.69131 1032 ft 11 kts 93°
2026-05-06 20:24 46.78845 23.69198 1032 ft 10 kts 165°
2026-05-06 20:24 46.78771 23.69231 1032 ft 9 kts 162°
2026-05-06 20:25 46.78735 23.69248 1032 ft 6 kts 162°
2026-05-06 20:25 46.78684 23.69272 1032 ft 8 kts 162°
2026-05-06 20:25 46.78617 23.69305 1032 ft 11 kts 160°
2026-05-06 20:25 46.78536 23.69345 1032 ft 12 kts 166°
2026-05-06 20:26 46.78487 23.69361 1032 ft 5 kts 168°
2026-05-06 20:26 46.78453 23.69343 1032 ft 4 kts 250°
2026-05-06 20:26 46.78448 23.69304 1032 ft 2 kts 258°
2026-05-06 20:26 46.78446 23.69293 1032 ft 0 kts 258°